User: anonymous   Login
Location: Caltech
(34.1382°N, 118.1253°W)
Time: 02:15:42
(UTC-07:00)
Language:

OPAL - Orbit

View from above orbital plane
View from above orbital plane
View from above satellite
View from above satellite

Ground track
Ground track

The orbit data is extracted from the following two-line orbital elements,

1 26063U 00004C   17083.95059107 -.00000000 +00000-0 +19913-4 0  9994
2 26063 100.2256 071.8667 0036396 184.8744 175.2087 14.36656471899080
Epoch (UTC): 24 March 2017 22:48:51
Eccentricity: 0.0036396
inclination: 100.2256°
perigee height: 743 km
apogee height: 795 km
right ascension of ascending node: 71.8667°
argument of perigee: 184.8744°
revolutions per day: 14.36656471
mean anomaly at epoch: 175.2087°
orbit number at epoch: 89908

The dashed part of the orbit path shows where the satellite is in the earth's shadow,  

DLR